Flag for Denmark Weather past 2 weeks in Roskilde, Denmark

Now
48 °F

Partly sunny.


Feels Like: 45 °F
Forecast: 41 / 60 °F
Wind: 8 mph from East

Location: Koebenhavn / Roskilde


UV Index: 0 (Low)

Visibility: N/A


Pressure: 30.21 "Hg

Humidity: 71%

Dew point: 39 °F

Location of RoskildeLocation

Historic Weather in Roskilde

°F

Roskilde temperature yesterday

Maximum temperature yesterday: 54 °F (at 9:50 AM)
Minimum temperature yesterday: 46 °F (at 1:20 AM)
Average temperature yesterday: 49 °F

Past Weeks' High & Low Weather Summary

 TemperatureHumidityPressure
High66 °F (Apr 20, 1:20 PM)100% (Apr 11, 7:50 AM)30.42 "Hg (Apr 11, 7:50 AM)
Low28 °F (Apr 16, 6:20 AM)32% (Apr 16, 12:20 PM)29.47 "Hg (Apr 14, 8:20 AM)
Average48 °F75%30.02 "Hg
* Reported Apr 9 7:20 PM — Apr 24 7:50 PM, Roskilde, Weather by CustomWeather, © 2014

Note: Actual official high and low records may vary slightly from our data, if they occured in-between our weather recording intervals... More about our weather records

Advertising

Historic Weather Conditions — Data for Previous 24 hours

 ConditionsComfort  
Time TempWeatherWind HumidityBarometerVisibility
7:50 PM
Apr 24
48 °FDrizzle. Partly sunny.8 mph71%30.21 "HgN/A
7:20 PM48 °FPartly sunny.9 mph66%30.21 "HgN/A
6:50 PM50 °FPartly sunny.10 mph62%30.21 "HgN/A
6:20 PM50 °FPartly sunny.8 mph62%30.21 "HgN/A
5:50 PM50 °FPartly sunny.9 mph67%30.21 "HgN/A
5:20 PM50 °FPartly sunny.9 mph67%30.24 "HgN/A
4:50 PM48 °FPartly sunny.10 mph71%30.24 "HgN/A
4:20 PM48 °FPartly sunny.9 mph71%30.24 "HgN/A
3:50 PM48 °FPartly sunny.12 mph71%30.24 "HgN/A
3:20 PM48 °FPartly sunny.12 mph76%30.27 "HgN/A
2:50 PM48 °FPartly sunny.10 mph76%30.27 "HgN/A
2:20 PM48 °FPartly sunny.13 mph71%30.27 "HgN/A
1:50 PM50 °FBroken clouds.10 mph71%30.27 "HgN/A
1:20 PM50 °FBroken clouds.8 mph67%30.27 "HgN/A
12:50 PM50 °FPartly sunny.9 mph67%30.27 "HgN/A
12:20 PM48 °FPartly sunny.8 mph71%30.27 "HgN/A
11:50 AM46 °FPartly sunny.10 mph71%30.27 "HgN/A
11:20 AM46 °FPartly sunny.12 mph71%30.27 "HgN/A
10:50 AM45 °FPartly sunny.10 mph76%30.27 "HgN/A
10:20 AM43 °FLight rain. Partly sunny.10 mph81%30.27 "HgN/A
9:50 AM43 °FLight rain. Partly sunny.12 mph76%30.27 "HgN/A
9:20 AM43 °FLight rain. Partly sunny.9 mph76%30.27 "HgN/A
8:50 AM41 °FRain showers. Partly sunny.10 mph81%30.27 "HgN/A
8:20 AM43 °FRain showers. Partly sunny.9 mph71%30.27 "HgN/A
7:50 AM43 °FSprinkles. Partly sunny.7 mph71%30.27 "HgN/A
7:20 AM43 °FSprinkles. Partly sunny.7 mph71%30.27 "HgN/A
6:50 AM41 °FPartly sunny.6 mph81%30.27 "HgN/A
6:20 AM41 °FPassing clouds.5 mph81%30.27 "HgN/A
5:50 AM41 °FPassing clouds.2 mph81%30.27 "HgN/A
5:20 AM41 °FPartly cloudy.7 mph81%30.27 "HgN/A
4:50 AM41 °FLight rain. Passing clouds.9 mph81%30.27 "HgN/A
4:20 AM41 °FLight rain. Partly cloudy.8 mph81%30.27 "HgN/A
3:50 AM41 °FLight rain. Partly cloudy.8 mph76%30.30 "HgN/A
3:20 AM43 °FLight rain. Overcast.10 mph71%30.30 "HgN/A
2:50 AM43 °FLight rain. Overcast.12 mph61%30.30 "HgN/A
2:20 AM43 °FLight rain. Passing clouds.9 mph66%30.30 "HgN/A
1:50 AM43 °FRain. Overcast.9 mph71%30.30 "HgN/A
1:20 AM43 °FLight rain. Partly cloudy.10 mph71%30.30 "HgN/A
12:50 AM45 °FRain. Overcast.13 mph61%30.30 "HgN/A
12:20 AM45 °FLight rain. Passing clouds.10 mph76%30.30 "HgN/A
11:50 PM
Apr 23
46 °FSprinkles. Passing clouds.9 mph76%30.30 "HgN/A
11:20 PM46 °FSprinkles. Passing clouds.12 mph76%30.30 "HgN/A
10:50 PM46 °FLight rain. Mostly cloudy.12 mph76%30.30 "HgN/A
10:20 PM46 °FLight rain. Passing clouds.10 mph82%30.30 "HgN/A
9:50 PM46 °FLight rain. Passing clouds.7 mph87%30.30 "HgN/A
9:20 PM46 °FLight rain. Partly sunny.8 mph87%30.30 "HgN/A
Weather by CustomWeather, © 2014

See weather overview